Clinton, NC

12:25 PM EST on February 14, 2016 (GMT -0500)
Sampson County

Weather History for KCTZ - December, 2013

Change the Weather History Date:

Thursday, December 26, 2013

  Actual Average (KFAY) Record (KFAY)
Temperature  
Mean Temperature 38 °F 43 °F  
Max Temperature 44 °F 53 °F 79 °F (1955)
Min Temperature 32 °F 33 °F 7 °F (1983)
Degree Days  
Heating Degree Days 27 22  
Month to date heating degree days 501  
Since 1 July heating degree days 949  
Cooling Degree Days 0 0  
Month to date cooling degree days 0  
Year to date cooling degree days 1991  
Moisture  
Dew Point 33 °F    
Average Humidity 84    
Maximum Humidity 100    
Minimum Humidity 64    
Precipitation  
Precipitation 0.02 in 0.07 in 1.49 in (1943)
Month to date precipitation 2.32  
Year to date precipitation 44.13  
Sea Level Pressure  
Sea Level Pressure 30.33 in    
Wind  
Wind Speed 1 mph (NNW)    
Max Wind Speed 6 mph    
Max Gust Speed -    
Visibility 10 miles    
Events Rain    
T = Trace of Precipitation, MM = Missing Value Source: NWS Daily Summary

Daily Weather History Graph

Daily Weather History Graph

Search for Another Location

Airport or City:

Trip Planner

Search our weather history database for the weather conditions in past years. The results will help you decide how hot, cold, wet, or windy it might be!

Date:

Astronomy

Dec. 26, 2013 Rise Set
Actual Time 7:19 AM EST 5:08 PM EST
Civil Twilight 6:51 AM EST 5:36 PM EST
Nautical Twilight 6:19 AM EST 6:08 PM EST
Astronomical Twilight 5:49 AM EST 6:39 PM EST
Moon 12:56 AM EST (12/26) 12:33 PM EST (12/26)
Length of Visible Light 10h 45m
Length of Day
9h 48m
Last Quarter, 38% of the Moon is Illuminated
Dec 26
Last Quarter
Jan 1
New
Jan 7
First Quarter
Jan 15
Full
Jan 24
Last Quarter

Hourly Weather History & Observations

Time (EST) Temp. Windchill Dew Point Humidity Pressure Visibility Wind Dir Wind Speed Gust Speed Precip Events Conditions
12:15 AM 33.6 °F - 27.5 °F 78% 30.40 in 10.0 mi Calm Calm - N/A   Overcast
12:35 AM 33.6 °F - 27.9 °F 79% 30.39 in 10.0 mi Calm Calm - N/A   Overcast
12:55 AM 33.8 °F 28.6 °F 28.0 °F 79% 30.39 in 10.0 mi West 5.8 mph - N/A   Overcast
1:15 AM 33.8 °F - 28.0 °F 79% 30.38 in 10.0 mi Calm Calm - N/A   Overcast
1:35 AM 34.0 °F - 28.8 °F 81% 30.36 in 10.0 mi Calm Calm - N/A   Overcast
1:55 AM 33.8 °F 30.8 °F 28.4 °F 81% 30.37 in 10.0 mi NNE 3.5 mph - N/A   Overcast
2:15 AM 34.0 °F 31.0 °F 29.3 °F 83% 30.36 in 10.0 mi North 3.5 mph - N/A   Overcast
2:35 AM 33.8 °F - 28.9 °F 82% 30.36 in 10.0 mi Calm Calm - N/A   Overcast
2:55 AM 34.0 °F 29.8 °F 29.3 °F 83% 30.35 in 10.0 mi North 4.6 mph - N/A   Overcast
3:15 AM 34.2 °F 31.2 °F 29.7 °F 84% 30.34 in 10.0 mi North 3.5 mph - N/A   Overcast
3:35 AM 34.5 °F - 30.0 °F 84% 30.35 in 10.0 mi Calm Calm - N/A   Overcast
3:55 AM 34.7 °F - 30.0 °F 83% 30.34 in 10.0 mi Calm Calm - N/A   Overcast
4:15 AM 34.9 °F - 30.2 °F 83% 30.35 in 10.0 mi Calm Calm - N/A   Overcast
4:35 AM 35.2 °F 32.4 °F 30.6 °F 83% 30.34 in 10.0 mi NNW 3.5 mph - N/A   Overcast
4:55 AM 35.2 °F - 30.6 °F 83% 30.33 in 10.0 mi Calm Calm - N/A   Overcast
5:15 AM 35.2 °F 32.4 °F 30.6 °F 83% 30.34 in 10.0 mi NW 3.5 mph - N/A   Overcast
5:35 AM 35.6 °F - 31.6 °F 85% 30.33 in 10.0 mi Calm Calm - N/A Rain Light Rain
5:55 AM 35.6 °F - 32.2 °F 87% 30.34 in 10.0 mi Calm Calm - N/A Rain Light Rain
6:15 AM 35.2 °F - 32.9 °F 91% 30.34 in 10.0 mi Calm Calm - N/A Rain Light Rain
6:35 AM 35.2 °F - 33.6 °F 94% 30.34 in 10.0 mi Calm Calm - N/A Rain Rain
6:55 AM 35.1 °F 32.2 °F 33.6 °F 94% 30.34 in 10.0 mi NNW 3.5 mph - 0.01 in Rain Light Rain
7:15 AM 35.1 °F - 34.3 °F 97% 30.34 in 10.0 mi Calm Calm - N/A Rain Light Rain
7:35 AM 35.1 °F - 34.2 °F 97% 30.34 in 10.0 mi Calm Calm - N/A Rain Light Rain
7:55 AM 35.1 °F 31.0 °F 34.7 °F 99% 30.36 in 7.0 mi NW 4.6 mph - N/A Rain Light Rain
8:15 AM 35.4 °F - 34.7 °F 97% 30.36 in 7.0 mi Calm Calm - N/A Rain Rain
8:35 AM 35.6 °F - 35.1 °F 98% 30.36 in 10.0 mi Calm Calm - N/A   Light Drizzle
8:55 AM 36.0 °F - 35.1 °F 97% 30.36 in 7.0 mi Calm Calm - 0.01 in Rain Light Rain
9:15 AM 36.5 °F - 35.6 °F 97% 30.37 in 7.0 mi Calm Calm - N/A   Light Drizzle
9:35 AM 36.9 °F - 35.6 °F 95% 30.36 in 10.0 mi Calm Calm - N/A   Overcast
9:55 AM 37.4 °F - 36.1 °F 95% 30.37 in 7.0 mi Calm Calm - N/A   Drizzle
10:15 AM 37.9 °F 35.5 °F 35.8 °F 92% 30.37 in 10.0 mi North 3.5 mph - N/A   Overcast
10:35 AM 38.8 °F 36.5 °F 36.7 °F 92% 30.36 in 10.0 mi North 3.5 mph - N/A   Overcast
10:55 AM 39.0 °F 36.8 °F 35.1 °F 86% 30.36 in 10.0 mi North 3.5 mph - N/A   Overcast
11:15 AM 39.2 °F 35.9 °F 33.8 °F 81% 30.36 in 10.0 mi North 4.6 mph - N/A   Overcast
11:35 AM 39.4 °F 36.1 °F 34.0 °F 81% 30.35 in 10.0 mi NNW 4.6 mph - N/A   Overcast
11:55 AM 39.9 °F - 33.8 °F 79% 30.33 in 10.0 mi Calm Calm - N/A   Overcast
12:15 PM 39.9 °F 36.7 °F 34.0 °F 79% 30.33 in 10.0 mi NNW 4.6 mph - N/A   Overcast
12:35 PM 40.3 °F 37.1 °F 34.2 °F 79% 30.32 in 10.0 mi NW 4.6 mph - N/A   Overcast
12:55 PM 40.3 °F 37.1 °F 34.9 °F 81% 30.31 in 7.0 mi NNW 4.6 mph - N/A   Drizzle
1:15 PM 40.6 °F 38.6 °F 34.9 °F 80% 30.30 in 10.0 mi NNW 3.5 mph - N/A   Overcast
1:35 PM 41.2 °F - 33.4 °F 74% 30.29 in 10.0 mi Calm Calm - N/A   Overcast
1:55 PM 42.3 °F - 33.6 °F 71% 30.28 in 10.0 mi Calm Calm - N/A   Overcast
2:15 PM 42.6 °F - 34.0 °F 71% 30.28 in 10.0 mi Calm Calm - N/A   Overcast
2:35 PM 43.7 °F 42.1 °F 33.4 °F 67% 30.27 in 10.0 mi North 3.5 mph - N/A   Overcast
2:55 PM 43.7 °F - 33.1 °F 66% 30.27 in 10.0 mi Calm Calm - N/A   Overcast
3:15 PM 43.9 °F - 33.1 °F 66% 30.27 in 10.0 mi Calm Calm - N/A   Overcast
3:35 PM 44.2 °F - 33.3 °F 65% 30.27 in 10.0 mi Calm Calm - N/A   Overcast
3:55 PM 44.4 °F - 32.7 °F 64% 30.27 in 10.0 mi Calm Calm - N/A   Overcast
4:15 PM 44.6 °F - 33.3 °F 64% 30.28 in 10.0 mi Calm Calm - N/A   Overcast
4:35 PM 44.6 °F - 33.8 °F 66% 30.28 in 10.0 mi Calm Calm - N/A   Overcast
4:55 PM 44.6 °F - 34.0 °F 66% 30.28 in 10.0 mi Calm Calm - N/A   Overcast
5:15 PM 44.6 °F - 35.2 °F 70% 30.28 in 10.0 mi Calm Calm - N/A   Overcast
5:35 PM 44.1 °F - 35.6 °F 72% 30.29 in 10.0 mi Calm Calm - N/A   Overcast
5:55 PM 43.2 °F - 32.9 °F 67% 30.29 in 10.0 mi Calm Calm - N/A   Mostly Cloudy
6:15 PM 42.6 °F - 33.4 °F 70% 30.30 in 10.0 mi Calm Calm - N/A   Mostly Cloudy
6:35 PM 41.5 °F - 34.0 °F 75% 30.31 in 10.0 mi Calm Calm - N/A   Mostly Cloudy
6:55 PM 40.5 °F - 35.1 °F 81% 30.30 in 10.0 mi Calm Calm - N/A   Mostly Cloudy
7:15 PM 39.2 °F - 33.1 °F 79% 30.32 in 10.0 mi Calm Calm - N/A   Scattered Clouds
7:35 PM 37.6 °F - 33.4 °F 85% 30.32 in 10.0 mi Calm Calm - N/A   Clear
7:55 PM 36.9 °F - 34.5 °F 91% 30.33 in 10.0 mi Calm Calm - N/A   Clear
8:15 PM 35.8 °F - 33.6 °F 92% 30.32 in 10.0 mi Calm Calm - N/A   Clear
8:35 PM 35.6 °F - 33.3 °F 91% 30.33 in 10.0 mi Calm Calm - N/A   Clear
8:55 PM 34.9 °F - 33.3 °F 94% 30.33 in 10.0 mi Calm Calm - N/A   Clear
9:15 PM 34.2 °F - 32.9 °F 95% 30.33 in 10.0 mi Calm Calm - N/A   Clear
9:35 PM 34.3 °F - 33.3 °F 96% 30.34 in 10.0 mi Calm Calm - N/A   Clear
9:55 PM 34.2 °F - 33.4 °F 97% 30.35 in 10.0 mi Calm Calm - N/A   Clear
10:15 PM 33.4 °F - 32.9 °F 98% 30.35 in 10.0 mi Calm Calm - N/A   Clear
10:35 PM 33.3 °F - 32.7 °F 98% 30.36 in 10.0 mi Calm Calm - N/A   Clear
10:55 PM 33.1 °F - 32.9 °F 99% 30.36 in 10.0 mi Calm Calm - N/A   Clear
11:15 PM 32.9 °F - 32.5 °F 99% 30.36 in 10.0 mi Calm Calm - N/A   Clear
11:35 PM 32.4 °F - 32.0 °F 99% 30.37 in 10.0 mi Calm Calm - N/A   Clear
11:55 PM 32.0 °F - 32.0 °F 100% 30.36 in 10.0 mi Calm Calm - N/A   Clear